[[{"header":{"parameterUnit":"m.s-1","parameterCategory":1,"la1":30.2991,"la2":30.254,"lo1":-89.0895,"lo2":-89.0444,"dy":0.0017,"dx":0.0017,"nx":28,"ny":28,"refTime":"2024-05-03T09:00:00:Z","depth":0,"parameterNumber":2,"parameterNumberName":"U-component_of_WINDS"},"data":[0,0,0,0,0,0,0,0,0,0,0,0,0,0,0,0,0,0,0,0,0,0,0,0,0,0,0,0,0,0,0,0,0,0,0,0,0,0,0,0,0,0,0,0,0,0,0,0,0,0,0,0,0,0,0,0,0,0,-0.6434,-0.6434,0,-0.6445,-0.6446,-0.6446,-0.6439,-0.6439,-0.6438,-0.6438,-0.6452,-0.6453,-0.6453,0,0,0,0,0,0,0,0,0,0,0,0,0,-0.6409,-0.6409,-0.6434,-0.6434,-0.6434,-0.6445,-0.6446,-0.6446,-0.6439,-0.6439,-0.6438,-0.6438,-0.6452,-0.6452,-0.6453,0,0,0,0,0,0,0,0,0,0,0,0,0,-0.642,-0.6409,-0.6434,-0.6432,-0.6432,-0.6445,-0.6446,-0.6446,-0.6439,-0.6439,-0.6438,-0.6438,-0.6451,-0.6452,-0.6453,-0.6469,0,0,-0.6456,-0.6457,0,0,0,0,0,0,0,0,-0.6419,-0.6421,-0.6432,-0.6432,-0.6432,-0.644,-0.6442,-0.6454,-0.6439,-0.6437,-0.6438,-0.6438,-0.6449,-0.645,-0.6453,-0.647,-0.6471,-0.6457,-0.6457,-0.6458,-0.6458,0,0,0,0,0,0,0,-0.6418,-0.642,-0.6439,-0.6433,-0.6433,-0.6432,-0.6433,-0.6444,-0.6445,-0.6437,-0.6436,-0.6438,-0.6448,-0.6452,-0.6453,-0.6471,-0.6457,-0.6457,-0.6458,-0.6458,-0.6502,-0.6503,0,0,0,0,0,0,-0.6418,-0.642,-0.6438,-0.6439,-0.6424,-0.6433,-0.6434,-0.6438,-0.6445,-0.6446,-0.6438,-0.6437,-0.6451,-0.6452,-0.6454,-0.6473,-0.6458,-0.6459,-0.6459,-0.6502,-0.6502,-0.6503,0,0,0,0,0,0,-0.6417,-0.6419,-0.6438,-0.6429,-0.6431,-0.6433,-0.6439,-0.6439,-0.6442,-0.6446,-0.6447,-0.6441,-0.645,-0.6452,-0.6466,-0.6474,-0.6459,-0.646,-0.6501,-0.6502,-0.6503,-0.6512,0,0,0,0,0,0,-0.6416,-0.6419,-0.6425,-0.6429,-0.6432,-0.6449,-0.6439,-0.6439,-0.6444,-0.6443,-0.6449,-0.645,-0.645,-0.6464,-0.6467,-0.6475,-0.6461,-0.65,-0.6501,-0.6502,-0.6511,-0.6513,-0.6515,0,0,0,0,0,-0.6415,-0.6427,-0.6425,-0.6427,-0.6439,-0.6449,-0.6451,-0.645,-0.6445,-0.6451,-0.6453,-0.645,-0.6472,-0.6466,-0.6468,-0.6477,-0.65,-0.6501,-0.6502,-0.651,-0.6513,-0.6515,0,0,0,0,0,0,-0.6424,-0.6428,-0.6425,-0.6439,-0.6444,-0.6448,-0.6455,-0.6453,-0.646,-0.6459,-0.6458,-0.646,-0.6474,-0.6477,-0.6469,-0.6493,-0.6485,-0.6487,-0.649,-0.6493,-0.6495,-0.6494,-0.6462,0,0,0,0,0,-0.6427,-0.6435,-0.6438,-0.645,-0.6452,-0.6453,-0.6458,-0.6457,-0.6462,-0.6464,-0.6468,-0.6474,-0.6482,-0.6488,-0.6496,-0.6512,-0.6513,-0.6519,-0.6521,-0.6522,-0.6524,-0.6533,-0.6536,-0.6507,-0.6507,-0.6507,0,0,-0.6435,-0.6438,-0.6442,-0.6452,-0.6455,-0.6463,-0.6455,-0.6464,-0.6471,-0.6466,-0.6478,-0.6481,-0.6488,-0.6502,-0.6509,-0.6505,-0.6532,-0.6524,-0.6525,-0.6526,-0.6535,-0.6537,-0.654,-0.6508,-0.6508,-0.6508,0,0,-0.6452,-0.6455,-0.6465,-0.6469,-0.6474,-0.6475,-0.6477,-0.6482,-0.6484,-0.6496,-0.6493,-0.6501,-0.6515,-0.652,-0.6524,-0.6544,-0.6542,-0.6547,-0.6557,-0.6566,-0.6568,-0.657,-0.6577,-0.658,-0.6549,-0.6549,-0.6549,0,-0.6461,-0.6472,-0.6471,-0.648,-0.6484,-0.648,-0.6491,-0.6495,-0.6503,-0.6506,-0.6502,-0.652,-0.6524,-0.654,-0.6545,-0.6548,-0.6551,-0.6546,-0.6568,-0.657,-0.6571,-0.6578,-0.6581,-0.6549,-0.6549,-0.6549,-0.6549,0,-0.6483,-0.6491,-0.6499,-0.6506,-0.6511,-0.6521,-0.6521,-0.6527,-0.6526,-0.6527,-0.654,-0.6545,-0.6554,-0.6558,-0.6557,-0.6574,-0.6571,-0.6567,-0.656,-0.6575,-0.6581,-0.6584,-0.655,-0.655,-0.655,-0.6549,0,0,-0.6506,-0.6512,-0.6515,-0.6518,-0.6524,-0.653,-0.654,-0.6548,-0.6553,-0.6559,-0.6568,-0.6581,-0.6577,-0.6582,-0.6582,-0.6589,-0.6605,-0.6584,-0.6585,-0.6588,-0.6624,-0.6627,-0.663,-0.6603,-0.6604,-0.6604,-0.6623,0,-0.6524,-0.654,-0.6539,-0.6555,-0.6563,-0.6559,-0.6568,-0.6573,-0.6575,-0.6582,-0.6585,-0.6594,-0.6588,-0.6591,-0.6598,-0.6601,-0.6612,-0.66,-0.6612,-0.6612,-0.661,-0.6633,-0.6636,-0.6654,-0.6626,-0.6626,-0.6627,0,-0.6546,-0.6552,-0.6569,-0.6573,-0.6577,-0.6585,-0.6592,-0.6599,-0.6605,-0.6606,-0.6611,-0.661,-0.6621,-0.6613,-0.6629,-0.662,-0.6625,-0.6628,-0.6628,-0.6629,-0.662,-0.6635,-0.666,-0.6663,-0.6631,-0.663,-0.663,0,-0.6562,-0.6574,-0.6585,-0.6588,-0.6594,-0.66,-0.6602,-0.6608,-0.6613,-0.6619,-0.6623,-0.6631,-0.6636,-0.6643,-0.6644,-0.6638,-0.666,-0.6652,-0.6661,-0.6661,-0.6666,-0.6665,-0.6692,-0.6669,-0.6669,-0.6669,-0.6669,0,-0.6582,-0.6592,-0.6592,-0.6599,-0.6611,-0.661,-0.6622,-0.6624,-0.6629,-0.6637,-0.6635,-0.6642,-0.6643,-0.6652,-0.6653,-0.6666,-0.6668,-0.6669,-0.667,-0.667,-0.6669,-0.6673,-0.6672,-0.667,-0.667,-0.6669,-0.6669,0,-0.6601,-0.6601,-0.6613,-0.6618,-0.6619,-0.6627,-0.6631,-0.6639,-0.664,-0.665,-0.6653,-0.6656,-0.6665,-0.6667,-0.6679,-0.6679,-0.6695,-0.6694,-0.6693,-0.6692,-0.6702,-0.6701,-0.6731,-0.6735,-0.671,-0.671,-0.671,0,-0.6613,-0.6621,-0.6626,-0.6631,-0.6634,-0.6641,-0.6646,-0.6646,-0.6652,-0.6659,-0.6665,-0.6674,-0.6682,-0.6698,-0.6701,-0.671,-0.6709,-0.6719,-0.6711,-0.671,-0.671,-0.6709,-0.671,-0.6721,-0.6721,-0.6722,-0.6722,0,-0.6636,-0.6636,-0.6642,-0.6649,-0.6655,-0.6661,-0.6666,-0.667,-0.6671,-0.6678,-0.6687,-0.6692,-0.6704,-0.6713,-0.6722,-0.6726,-0.6724,-0.6724,-0.6727,-0.6727,-0.6726,-0.6727,-0.6697,-0.6724,-0.6724,-0.6723,-0.6723,-0.6723,-0.6652,-0.6659,-0.6663,-0.6671,-0.6675,-0.668,-0.6687,-0.6689,-0.6697,-0.6705,-0.6705,-0.6715,-0.6722,-0.6733,-0.6738,-0.6746,-0.6743,-0.6747,-0.6748,-0.6749,-0.675,-0.6725,-0.6748,-0.6748,-0.6748,-0.6748,-0.6748,0,-0.6675,-0.6677,-0.6684,-0.6692,-0.6698,-0.6695,-0.67,-0.6706,-0.6715,-0.672,-0.6727,-0.6739,-0.6748,-0.6752,-0.6761,-0.6767,-0.6767,-0.677,-0.6769,-0.677,-0.6752,-0.6749,-0.677,-0.677,-0.677,-0.677,-0.677,-0.677,-0.6687,-0.6698,-0.6699,-0.6712,-0.6715,-0.6724,-0.6728,-0.6733,-0.6737,-0.6749,-0.6756,-0.6759,-0.6764,-0.6774,-0.6782,-0.6783,-0.6787,-0.679,-0.6791,-0.6774,-0.6772,-0.6769,-0.6766,-0.6791,-0.6791,-0.6808,-0.6809,-0.6809]},{"header":{"parameterUnit":"m.s-1","parameterCategory":1,"la1":30.2991,"la2":30.254,"lo1":-89.0895,"lo2":-89.0444,"dy":0.0017,"dx":0.0017,"nx":28,"ny":28,"refTime":"2024-05-03T09:00:00:Z","depth":0,"parameterNumber":3,"parameterNumberName":"V-component_of_WINDS"},"data":[0,0,0,0,0,0,0,0,0,0,0,0,0,0,0,0,0,0,0,0,0,0,0,0,0,0,0,0,0,0,0,0,0,0,0,0,0,0,0,0,0,0,0,0,0,0,0,0,0,0,0,0,0,0,0,0,0,0,1.5701,1.5701,0,1.5655,1.5655,1.5654,1.5603,1.5602,1.5602,1.5601,1.5554,1.5553,1.5553,0,0,0,0,0,0,0,0,0,0,0,0,0,1.5745,1.5744,1.5701,1.5701,1.57,1.5655,1.5655,1.5654,1.5603,1.5602,1.5602,1.5601,1.5554,1.5553,1.5553,0,0,0,0,0,0,0,0,0,0,0,0,0,1.5715,1.5744,1.5701,1.5669,1.5666,1.5655,1.5655,1.5654,1.5604,1.5602,1.5601,1.56,1.5554,1.5554,1.5553,1.557,0,0,1.555,1.555,0,0,0,0,0,0,0,0,1.5717,1.5714,1.5675,1.5672,1.5668,1.5634,1.5653,1.5626,1.5604,1.5627,1.5601,1.56,1.5581,1.5578,1.5572,1.5568,1.5566,1.555,1.555,1.5549,1.5549,0,0,0,0,0,0,0,1.5719,1.5715,1.5683,1.5674,1.567,1.5657,1.5652,1.5647,1.5611,1.5625,1.5621,1.5617,1.5579,1.5573,1.5571,1.5565,1.555,1.5549,1.5549,1.5548,1.5571,1.5573,0,0,0,0,0,0,1.5726,1.5717,1.5684,1.5682,1.569,1.5657,1.5651,1.5646,1.5611,1.5605,1.5618,1.5614,1.5575,1.5572,1.5569,1.5586,1.5549,1.5548,1.5548,1.557,1.5572,1.5573,0,0,0,0,0,0,1.5727,1.5723,1.5686,1.5698,1.5693,1.5658,1.5652,1.5646,1.5639,1.5605,1.5599,1.5618,1.5574,1.557,1.557,1.5584,1.5548,1.5547,1.5569,1.5571,1.5572,1.5621,0,0,0,0,0,0,1.5728,1.5724,1.573,1.5699,1.5692,1.5688,1.5653,1.5645,1.5638,1.5633,1.5604,1.5598,1.5573,1.5571,1.5569,1.5582,1.5547,1.5568,1.557,1.5572,1.5618,1.5624,1.563,0,0,0,0,0,1.573,1.5746,1.5731,1.5727,1.5699,1.5689,1.5685,1.5656,1.5639,1.5645,1.5623,1.5599,1.5583,1.5572,1.5569,1.5582,1.5567,1.5569,1.5572,1.5616,1.5623,1.563,0,0,0,0,0,0,1.578,1.5741,1.5724,1.573,1.5714,1.5681,1.5687,1.5665,1.5653,1.5649,1.5613,1.5607,1.5611,1.5596,1.5585,1.5596,1.5571,1.5573,1.5606,1.5612,1.5618,1.5622,1.5546,0,0,0,0,0,1.5792,1.5787,1.5753,1.5762,1.5754,1.5723,1.5717,1.5696,1.5677,1.567,1.5648,1.563,1.5621,1.5616,1.5606,1.5616,1.5609,1.5623,1.5629,1.5634,1.5636,1.564,1.5646,1.5581,1.5581,1.5581,0,0,1.5816,1.5794,1.5793,1.5772,1.5756,1.5752,1.5717,1.5714,1.571,1.5669,1.5668,1.5651,1.5629,1.5634,1.5635,1.5622,1.5652,1.5637,1.5641,1.564,1.5643,1.5649,1.5655,1.5583,1.5583,1.5582,0,0,1.5858,1.5841,1.5846,1.5831,1.5808,1.5787,1.5788,1.5758,1.5746,1.5744,1.5713,1.5708,1.5693,1.5679,1.5669,1.5706,1.5683,1.5703,1.5733,1.5737,1.5742,1.5747,1.5759,1.5764,1.5706,1.5706,1.5706,0,1.5891,1.5883,1.5852,1.585,1.5842,1.5804,1.5809,1.5796,1.5771,1.5766,1.5751,1.5731,1.5714,1.5715,1.5724,1.5718,1.5718,1.5706,1.5744,1.5748,1.5752,1.5763,1.5768,1.5708,1.5708,1.5708,1.5707,0,1.5925,1.592,1.5927,1.5903,1.5895,1.5897,1.5866,1.5861,1.5841,1.5821,1.5819,1.5797,1.5782,1.578,1.5761,1.5778,1.5771,1.5751,1.5725,1.5761,1.5771,1.5776,1.5712,1.5711,1.571,1.571,0,0,1.5997,1.5956,1.5959,1.5947,1.5919,1.5914,1.5914,1.5899,1.5896,1.588,1.5879,1.5867,1.5848,1.5838,1.5816,1.582,1.5849,1.5799,1.5798,1.5809,1.5867,1.5882,1.5888,1.5834,1.5835,1.5835,1.5869,0,1.6033,1.6031,1.6003,1.6008,1.6003,1.5968,1.5968,1.595,1.5932,1.5924,1.5904,1.5896,1.5872,1.5865,1.5867,1.5845,1.5861,1.5843,1.5832,1.5833,1.5839,1.5893,1.5909,1.5942,1.5873,1.5873,1.5874,0,1.6076,1.6062,1.6067,1.6038,1.6035,1.6035,1.6019,1.6013,1.5992,1.5978,1.5967,1.5942,1.594,1.5916,1.5912,1.59,1.5895,1.5883,1.5884,1.5882,1.5855,1.5892,1.5952,1.5957,1.588,1.588,1.5879,0,1.6127,1.611,1.6111,1.6102,1.6069,1.607,1.6056,1.6034,1.6027,1.6012,1.6007,1.5993,1.5985,1.5974,1.5947,1.5932,1.5946,1.592,1.5934,1.5935,1.5939,1.5939,1.5998,1.5936,1.5936,1.5935,1.5935,0,1.6171,1.6175,1.6133,1.6134,1.6138,1.6105,1.611,1.6092,1.6073,1.607,1.6038,1.6036,1.5999,1.5992,1.597,1.597,1.5967,1.5956,1.595,1.5959,1.596,1.5954,1.5951,1.5937,1.5936,1.5936,1.5936,0,1.6229,1.6201,1.62,1.6168,1.616,1.6164,1.6137,1.6136,1.6115,1.6111,1.6108,1.6076,1.6066,1.6037,1.602,1.6006,1.6012,1.6001,1.6019,1.6015,1.6032,1.603,1.6089,1.6095,1.6029,1.603,1.603,0,1.6259,1.6261,1.623,1.6225,1.6212,1.6205,1.6197,1.6165,1.6158,1.6135,1.6137,1.6125,1.6113,1.6099,1.6074,1.6061,1.6049,1.607,1.6047,1.6055,1.6049,1.6049,1.6049,1.6076,1.6076,1.6077,1.6078,0,1.6314,1.63,1.629,1.6275,1.6266,1.6253,1.6238,1.6236,1.62,1.6194,1.6183,1.6175,1.6157,1.6145,1.6128,1.6113,1.609,1.6085,1.6088,1.6097,1.6107,1.6101,1.6033,1.6084,1.6084,1.6083,1.6083,1.6082,1.6358,1.6359,1.6337,1.6326,1.6312,1.6298,1.6296,1.6275,1.6265,1.6249,1.623,1.6222,1.6201,1.6175,1.6162,1.6155,1.6143,1.6147,1.6148,1.6149,1.6153,1.6108,1.6152,1.6152,1.6152,1.6151,1.6151,0,1.6412,1.6396,1.6387,1.6366,1.6358,1.6337,1.6319,1.6313,1.6306,1.6289,1.6278,1.6266,1.6254,1.6228,1.6214,1.6213,1.6202,1.6211,1.621,1.6207,1.6165,1.6164,1.622,1.622,1.622,1.622,1.622,1.622,1.6439,1.6438,1.6422,1.6414,1.6397,1.6389,1.638,1.6368,1.6353,1.6341,1.6331,1.6315,1.6294,1.6278,1.6266,1.6258,1.6255,1.6267,1.6256,1.6217,1.621,1.6204,1.6203,1.6266,1.6266,1.6299,1.6299,1.6299]}]]